[[{"header":{"parameterUnit":"m.s-1","parameterCategory":1,"la1":30.2991,"la2":30.254,"lo1":-89.0895,"lo2":-89.0444,"dy":0.0017,"dx":0.0017,"nx":28,"ny":28,"refTime":"2026-02-01T09:00:00:Z","depth":0,"parameterNumber":2,"parameterNumberName":"U-component_of_WINDS"},"data":[0,0,0,0,0,0,0,0,0,0,0,0,0,0,0,0,0,0,0,0,0,0,0,0,0,0,0,0,0,0,0,0,0,0,0,0,0,0,0,0,0,0,0,0,0,0,0,0,0,0,0,0,0,0,0,0,0,0,2.322,2.3221,0,2.3341,2.3342,2.3344,2.3323,2.3321,2.3319,2.3317,2.3443,2.3448,2.3453,0,0,0,0,0,0,0,0,0,0,0,0,0,2.2972,2.2976,2.322,2.3221,2.3223,2.3341,2.3342,2.3344,2.3323,2.3321,2.3318,2.3316,2.3441,2.3447,2.3454,0,0,0,0,0,0,0,0,0,0,0,0,0,2.3085,2.2978,2.3219,2.3227,2.3228,2.334,2.3342,2.3344,2.3324,2.3321,2.3318,2.3315,2.3439,2.3447,2.3454,2.3567,0,0,2.3479,2.3482,0,0,0,0,0,0,0,0,2.3078,2.3094,2.3224,2.3226,2.3229,2.3314,2.3301,2.3419,2.3325,2.3288,2.3317,2.3313,2.3402,2.3413,2.3443,2.3573,2.3579,2.348,2.3484,2.3488,2.349,0,0,0,0,0,0,0,2.3071,2.3089,2.3268,2.3226,2.3229,2.3224,2.3237,2.3323,2.3362,2.3291,2.3289,2.3304,2.3403,2.3435,2.3446,2.3581,2.3479,2.3486,2.3491,2.3495,2.3808,2.3812,0,0,0,0,0,0,2.306,2.3082,2.3264,2.3271,2.3144,2.3231,2.3245,2.329,2.336,2.3368,2.3307,2.3303,2.3423,2.3436,2.345,2.3585,2.3488,2.3495,2.35,2.3805,2.3809,2.3813,0,0,0,0,0,0,2.3055,2.3077,2.3259,2.3177,2.3199,2.3239,2.3289,2.3294,2.3326,2.3372,2.3379,2.3332,2.3421,2.3439,2.3538,2.3589,2.3499,2.3506,2.3801,2.3806,2.3811,2.3858,0,0,0,0,0,0,2.3048,2.3075,2.3118,2.3178,2.3204,2.3344,2.3292,2.3298,2.3339,2.3335,2.3398,2.3406,2.342,2.3526,2.3546,2.3599,2.3512,2.3796,2.3803,2.3809,2.3852,2.3864,2.3874,0,0,0,0,0,2.3039,2.3127,2.312,2.3142,2.3258,2.3347,2.3362,2.3376,2.3344,2.3387,2.3417,2.3404,2.3581,2.3536,2.3559,2.3615,2.3793,2.3801,2.3809,2.3847,2.3862,2.3874,0,0,0,0,0,0,2.3073,2.3135,2.3128,2.3238,2.3288,2.3344,2.3399,2.3392,2.3453,2.3446,2.3462,2.3476,2.3576,2.3606,2.3555,2.3727,2.3682,2.3695,2.3704,2.3718,2.3729,2.3719,2.3519,0,0,0,0,0,2.3094,2.316,2.3211,2.3303,2.3328,2.3359,2.3399,2.3405,2.3457,2.3479,2.3516,2.3567,2.3634,2.3678,2.3743,2.3857,2.3869,2.3906,2.3917,2.3927,2.3937,2.3998,2.4014,2.3839,2.3839,2.3839,0,0,2.3136,2.3178,2.3219,2.3311,2.335,2.3419,2.3377,2.3452,2.3503,2.349,2.3585,2.3614,2.3673,2.3779,2.3828,2.3807,2.3988,2.3937,2.3944,2.3949,2.4007,2.4024,2.4039,2.3844,2.3843,2.3843,0,0,2.3248,2.3287,2.3367,2.3407,2.3467,2.3487,2.3506,2.3564,2.3582,2.3678,2.3669,2.3731,2.3846,2.3888,2.3924,2.4052,2.4041,2.4073,2.4131,2.419,2.4204,2.4216,2.426,2.4276,2.4083,2.4083,2.4083,0,2.3293,2.3396,2.3409,2.3485,2.3525,2.3516,2.3596,2.3635,2.3713,2.3741,2.3716,2.386,2.3899,2.4014,2.4045,2.4076,2.4097,2.4064,2.4201,2.4213,2.4225,2.4267,2.4283,2.4086,2.4086,2.4086,2.4085,0,2.3448,2.3519,2.3577,2.3651,2.3698,2.3776,2.3801,2.3847,2.3849,2.3872,2.3969,2.4016,2.4089,2.4117,2.4121,2.4233,2.4217,2.4197,2.4152,2.4245,2.4284,2.43,2.4091,2.409,2.4089,2.4088,0,0,2.3583,2.3663,2.3684,2.3717,2.3782,2.3838,2.3915,2.3986,2.4024,2.4079,2.4143,2.4241,2.4222,2.4264,2.4272,2.4324,2.442,2.4297,2.4299,2.4317,2.4544,2.4557,2.4576,2.4414,2.4418,2.442,2.4538,0,2.3699,2.3835,2.3849,2.397,2.4036,2.4028,2.4096,2.4143,2.4167,2.4226,2.4253,2.4321,2.4292,2.4316,2.4368,2.4397,2.4466,2.439,2.4474,2.4477,2.4457,2.4597,2.4611,2.4721,2.4554,2.4557,2.4559,0,2.3853,2.391,2.4037,2.4092,2.412,2.4181,2.4246,2.4303,2.4357,2.437,2.4416,2.4418,2.4497,2.4451,2.456,2.4508,2.4544,2.4564,2.4568,2.4575,2.4522,2.4605,2.4756,2.4772,2.4584,2.4582,2.458,0,2.3936,2.4046,2.4135,2.4164,2.4231,2.4273,2.4303,2.4354,2.4395,2.4453,2.4479,2.4546,2.4582,2.4634,2.4653,2.4618,2.4761,2.4717,2.4774,2.4773,2.4803,2.48,2.4959,2.483,2.4829,2.4829,2.4829,0,2.4063,2.414,2.4173,2.4228,2.4315,2.4331,2.4417,2.4445,2.449,2.455,2.4549,2.4606,2.4629,2.469,2.4706,2.4793,2.481,2.4823,2.4826,2.4822,2.482,2.4844,2.4836,2.4833,2.4832,2.4832,2.4831,0,2.4169,2.4195,2.4292,2.4347,2.4363,2.4424,2.4472,2.4525,2.4548,2.4624,2.4643,2.468,2.4751,2.4776,2.4863,2.4874,2.4974,2.4972,2.4956,2.4956,2.5011,2.5004,2.5189,2.5213,2.5069,2.5071,2.5072,0,2.4247,2.4307,2.4368,2.4408,2.4439,2.4504,2.4546,2.4565,2.4608,2.4673,2.4719,2.4789,2.4846,2.4961,2.4995,2.5061,2.5059,2.5119,2.5069,2.5062,2.5057,2.5052,2.5058,2.5128,2.5129,2.5131,2.5132,0,2.4382,2.4392,2.4452,2.4516,2.4566,2.4618,2.4668,2.4701,2.4727,2.4777,2.4849,2.4893,2.4981,2.5051,2.5119,2.515,2.5145,2.5147,2.5164,2.5159,2.5146,2.5151,2.4979,2.5143,2.5141,2.5141,2.514,2.514,2.4475,2.4527,2.4578,2.4645,2.4685,2.4732,2.4784,2.4813,2.4874,2.4946,2.4954,2.5031,2.5083,2.5173,2.5208,2.5269,2.5252,2.5276,2.5282,2.5287,2.529,2.5138,2.5281,2.5281,2.5281,2.5281,2.528,0,2.4608,2.4641,2.4702,2.4772,2.4824,2.4816,2.4871,2.4915,2.4983,2.5031,2.5087,2.517,2.5238,2.5277,2.5345,2.5386,2.5385,2.5403,2.5399,2.5406,2.5302,2.528,2.5402,2.5402,2.5402,2.5402,2.5402,2.5402,2.4683,2.477,2.4786,2.4892,2.4924,2.4999,2.5031,2.5075,2.5113,2.5205,2.5261,2.5286,2.5331,2.5402,2.5464,2.5474,2.5498,2.5516,2.5525,2.5426,2.5414,2.5401,2.5381,2.5522,2.5522,2.5623,2.5624,2.5625]},{"header":{"parameterUnit":"m.s-1","parameterCategory":1,"la1":30.2991,"la2":30.254,"lo1":-89.0895,"lo2":-89.0444,"dy":0.0017,"dx":0.0017,"nx":28,"ny":28,"refTime":"2026-02-01T09:00:00:Z","depth":0,"parameterNumber":3,"parameterNumberName":"V-component_of_WINDS"},"data":[0,0,0,0,0,0,0,0,0,0,0,0,0,0,0,0,0,0,0,0,0,0,0,0,0,0,0,0,0,0,0,0,0,0,0,0,0,0,0,0,0,0,0,0,0,0,0,0,0,0,0,0,0,0,0,0,0,0,3.0449,3.0449,0,3.0485,3.0485,3.0486,3.0482,3.0482,3.0481,3.0481,3.0514,3.0515,3.0517,0,0,0,0,0,0,0,0,0,0,0,0,0,3.0371,3.0372,3.0448,3.0449,3.0449,3.0485,3.0485,3.0486,3.0483,3.0482,3.0481,3.0481,3.0513,3.0515,3.0517,0,0,0,0,0,0,0,0,0,0,0,0,0,3.0406,3.0373,3.0448,3.0452,3.0453,3.0485,3.0485,3.0486,3.0483,3.0482,3.0481,3.048,3.0513,3.0515,3.0517,3.0546,0,0,3.0523,3.0524,0,0,0,0,0,0,0,0,3.0404,3.0408,3.0451,3.0452,3.0453,3.0478,3.047,3.0506,3.0483,3.0471,3.0481,3.048,3.0502,3.0505,3.0514,3.0548,3.0549,3.0524,3.0525,3.0526,3.0526,0,0,0,0,0,0,0,3.0401,3.0407,3.0463,3.0452,3.0453,3.045,3.0454,3.0477,3.0491,3.0472,3.0472,3.0477,3.0503,3.0512,3.0515,3.055,3.0523,3.0525,3.0527,3.0527,3.0607,3.0608,0,0,0,0,0,0,3.0399,3.0405,3.0462,3.0464,3.0426,3.0452,3.0457,3.0471,3.0491,3.0493,3.0477,3.0476,3.0509,3.0512,3.0516,3.055,3.0526,3.0528,3.0529,3.0606,3.0607,3.0608,0,0,0,0,0,0,3.0397,3.0404,3.046,3.0434,3.0441,3.0455,3.047,3.0472,3.0481,3.0495,3.0497,3.0484,3.0508,3.0513,3.0538,3.0551,3.0529,3.053,3.0605,3.0606,3.0608,3.0619,0,0,0,0,0,0,3.0395,3.0403,3.0416,3.0435,3.0443,3.0484,3.0471,3.0473,3.0485,3.0484,3.0502,3.0504,3.0508,3.0535,3.0541,3.0553,3.0532,3.0604,3.0606,3.0607,3.0617,3.062,3.0623,0,0,0,0,0,3.0392,3.0417,3.0416,3.0423,3.0459,3.0485,3.0489,3.0494,3.0486,3.0498,3.0506,3.0503,3.0549,3.0538,3.0544,3.0557,3.0603,3.0605,3.0607,3.0616,3.062,3.0623,0,0,0,0,0,0,3.0398,3.042,3.0419,3.0451,3.0466,3.0484,3.0499,3.0498,3.0515,3.0513,3.0518,3.0522,3.0547,3.0555,3.0543,3.0586,3.0575,3.0578,3.058,3.0583,3.0586,3.0583,3.0534,0,0,0,0,0,3.0403,3.0424,3.0441,3.0468,3.0475,3.0486,3.0497,3.05,3.0515,3.0521,3.0531,3.0545,3.0562,3.0573,3.059,3.0619,3.0621,3.0631,3.0633,3.0636,3.0638,3.0652,3.0655,3.0615,3.0615,3.0614,0,0,3.0414,3.0428,3.0441,3.0469,3.0481,3.05,3.0491,3.0512,3.0526,3.0524,3.0549,3.0556,3.0572,3.0599,3.0611,3.0606,3.065,3.0638,3.064,3.0641,3.0654,3.0658,3.0661,3.0616,3.0616,3.0615,0,0,3.0443,3.0457,3.048,3.0492,3.051,3.0517,3.0522,3.054,3.0545,3.0571,3.0569,3.0585,3.0615,3.0625,3.0634,3.0666,3.0663,3.0671,3.0685,3.0698,3.0701,3.0704,3.0714,3.0717,3.0674,3.0674,3.0674,0,3.0453,3.0484,3.0491,3.0512,3.0524,3.0524,3.0545,3.0556,3.0579,3.0586,3.058,3.0617,3.0627,3.0656,3.0663,3.0672,3.0676,3.0669,3.0701,3.0704,3.0706,3.0715,3.0719,3.0674,3.0674,3.0674,3.0674,0,3.0495,3.0516,3.0532,3.0554,3.0567,3.0589,3.0597,3.061,3.0611,3.0618,3.0642,3.0655,3.0673,3.068,3.0682,3.0709,3.0705,3.07,3.0689,3.0711,3.0719,3.0723,3.0675,3.0675,3.0675,3.0675,0,0,3.0528,3.0554,3.056,3.0569,3.0589,3.0604,3.0625,3.0644,3.0653,3.0669,3.0684,3.071,3.0705,3.0715,3.0718,3.073,3.0752,3.0723,3.0724,3.0727,3.0779,3.0782,3.0786,3.075,3.0751,3.0752,3.0778,0,3.0558,3.0596,3.0602,3.0634,3.0652,3.0652,3.0669,3.0682,3.0689,3.0704,3.0711,3.0728,3.0722,3.0728,3.074,3.0747,3.0762,3.0745,3.0763,3.0764,3.0758,3.0791,3.0794,3.0818,3.0781,3.0782,3.0782,0,3.0598,3.0614,3.0649,3.0665,3.0672,3.0688,3.0705,3.072,3.0734,3.0738,3.0749,3.075,3.0769,3.0758,3.0784,3.0772,3.078,3.0784,3.0785,3.0786,3.0773,3.0791,3.0825,3.0828,3.0788,3.0787,3.0787,0,3.0616,3.0647,3.0671,3.068,3.0699,3.071,3.0719,3.0732,3.0742,3.0757,3.0763,3.078,3.0788,3.08,3.0804,3.0796,3.0829,3.0819,3.0831,3.0831,3.0837,3.0836,3.0872,3.0844,3.0844,3.0844,3.0844,0,3.0648,3.0668,3.068,3.0695,3.0717,3.0723,3.0744,3.0752,3.0764,3.0779,3.0779,3.0793,3.0799,3.0813,3.0816,3.0836,3.084,3.0842,3.0842,3.0841,3.0841,3.0845,3.0843,3.0845,3.0845,3.0845,3.0844,0,3.0672,3.0681,3.0707,3.0723,3.0728,3.0743,3.0757,3.077,3.0776,3.0795,3.0799,3.0809,3.0825,3.0831,3.0851,3.0853,3.0875,3.0875,3.0871,3.087,3.0882,3.088,3.092,3.0925,3.0896,3.0896,3.0897,0,3.0691,3.0706,3.0725,3.0735,3.0744,3.0761,3.0772,3.0778,3.0789,3.0805,3.0816,3.0833,3.0846,3.0872,3.088,3.0894,3.0893,3.0907,3.0895,3.0893,3.0891,3.089,3.0891,3.0908,3.0908,3.0909,3.0909,0,3.0722,3.0726,3.0742,3.076,3.0773,3.0786,3.08,3.0808,3.0816,3.0828,3.0845,3.0855,3.0876,3.0891,3.0906,3.0913,3.0911,3.0912,3.0916,3.0914,3.091,3.0911,3.0875,3.0911,3.0911,3.0911,3.0911,3.0911,3.0743,3.0757,3.0771,3.0789,3.08,3.0812,3.0824,3.0833,3.0847,3.0865,3.0868,3.0885,3.0897,3.0917,3.0925,3.0938,3.0934,3.0939,3.094,3.0941,3.0941,3.0909,3.0941,3.0941,3.0941,3.0941,3.094,0,3.0774,3.0783,3.0799,3.0818,3.0831,3.083,3.0844,3.0855,3.0871,3.0883,3.0896,3.0915,3.093,3.0939,3.0953,3.0962,3.0962,3.0965,3.0964,3.0965,3.0944,3.0939,3.0965,3.0965,3.0965,3.0965,3.0965,3.0965,3.0791,3.0813,3.0818,3.0844,3.0853,3.0871,3.0879,3.089,3.0899,3.092,3.0933,3.0939,3.0949,3.0965,3.0978,3.098,3.0984,3.0988,3.099,3.097,3.0967,3.0964,3.096,3.099,3.099,3.1009,3.101,3.101]}]]